{"data":{"norad_id":69385,"intl_designator":"2026-124D","name":"QIANFAN-168","alt_names":[],"object_type":"PAYLOAD","status":"ACTIVE","operator":null,"country":"PRC","launch_date":"2026-06-04","launch_site_code":"TAISC","launch_vehicle":null,"mission":null,"orbit_class":"UNKNOWN","rcs_meters":null,"size_class":null,"mass_kg":null,"dimensions":null,"purposes":[],"wikipedia_slug":null,"has_3d_model":false,"image_url":null,"decayed_at":null,"tle_current":{"epoch":"2026-09-20T04:03:38.573280Z","epoch_age_seconds":63334,"freshness":"FRESH","line1":"1 69385U 26124D   26263.16919645  .00000117  00000+0  16259-3 0  9990","line2":"2 69385  89.0059 352.0526 0001654 108.6984 251.4346 13.51020458 14862","mean_motion":13.51020458,"eccentricity":0.0001654,"inclination_deg":89.0059,"raan_deg":352.0526,"arg_perigee_deg":108.6984,"mean_anomaly_deg":251.4346,"bstar":0.00016259,"rev_number":1486,"period_min":106.58609878726,"perigee_km":1067.2747349767,"apogee_km":1069.7380846166,"semimajor_km":7446.6434097967,"source":"CELESTRAK","updated_at":"2026-09-20T09:00:24.858452Z"}}}